DECAYED

STARLINK-1035, 44740 (Decayed)

Orbit data source: Space-Track

STARLINK-1035, 44740 was a payload satellite owned by SpaceX/Seattle (US) in LEO that was launched on Mon, 11 Nov 2019 UTC via an FALCON 9 launch vehicle from the Air Force Eastern Test Range (AFETR). Payload-class satellites include a variety of spacecraft equipped with specific instruments for various scientific and technological missions. These include communications satellites like Starlink; space stations such as the ISS; scientific satellites like the Hubble; Earth observation satellites from companies like Planet Labs, Umbra, and HawkEye 360; GPS; miniature CubeSats for education and research; and military/defense satellites.

Not visible in the next 10 days
Identifier
44740, 2019-074AD
Orbit
Decayed
Country
Flag of USUS
Related business
Manufacturer
SpaceX/Seattle
Mission
Decayed Commercial Communications
Bus & Motor
STARLINK, Unknown motor
Mass
260 kg wet, ~248 kg dry
Launch date (UTC)
2019-11-11 (7 years ago)
Launch vehicle
FALCON 9
Launch site
Air Force Eastern Test Range (AFETR)
Object type
Payload
Rocket body
Debris
Shape & HBR
Box + 1 Pan, 10.1 m
Radar Cross Section
13.562 m², Large (>1 m²)

Expand to show TLE details & history
Last TLE update: 1 year ago

TLE from 1 year ago
0 STARLINK-1035
1 44740U 19074AD  25102.27679569  .20108188  12607-4  37061-3 0  9999
2 44740  53.0254 202.2679 0002605 326.6177 131.4675 16.47505828299411
Epoch: 2025-04-12T06:38Z
TLE epoch observation values (Epoch: 2025-04-12T06:38:35.147Z)
Latitude
52.42981°
Longitude
5.23885°
Altitude
153.34 km
Speed
7.82 km/s
True Right ascension
20h 22m 25s
True Declination
52° 14' 53"
Sunlit
Object was in daylight at epoch
Visualization orbit readout
Latitude
Unknown
Longitude
Unknown
Altitude
Unknown
Speed
Unknown
Apparent Right ascension
Unknown
Apparent Declination
Unknown
Sunlit
N/A
Visualization observer readout
Local Sidereal Time
20:16:41
Azimuth
Unknown
Elevation
Unknown
Doppler factor
Unknown
Orbital elements
Apogee altitude
147.903 km
Perigee altitude
144.504 km
Semi-major axis
6,524.341 km
Eccentricity
0.00026
Inclination
53.0254°
RAAN
202.2679°
Arg. of periapsis
326.6177°
True anomaly
131.48986°
Mean anomaly
131.4675°
Eccentric anomaly
131.47868°
Mean motion
4.11849 °/min
Orbital period
87.41 mins
BSTAR
0.00037061
Loading maneuver chart data...
Computing Atmospheric mass density...

Documentation

Showing up to 5 results
|